sat.trackr.live / text

‹ back to catalog

STARLINK-30208

NORAD 57415 · 2023-102M

PAYLOAD ACTIVE UNKNOWN

§ Identity

Operator
Country
US
Launch date
2023-07-20
Launch site
AFWTR
Launch vehicle
Mass (kg)
RCS (m²)

Purposes: comms

External: N2YO · Heavens-Above · Gunter

§ Orbital elements

Epoch: 2026-09-20T05:36:52.817760Z

Period
94.27 min
Inclination
43.0021°
Eccentricity
0.0000862
Mean motion
15.27578729 rev/d
Perigee alt
482.5 km
Apogee alt
483.6 km
Semi-major
6,861.2 km
B*
5.8403e-6
RAAN
229.8473°
Arg perigee
317.5593°
Mean anomaly
42.5192°
Rev number
17,594

§ Raw data

STARLINK-302081 57415U 23102M   26263.23394465 -.00000101  00000+0  58403-5 0  99922 57415  43.0021 229.8473 0000862 317.5593  42.5192 15.27578729175940

JSON: /api/v1/satellites/57415 · /tle

For live sub-satellite position, see the globe view (requires WebGL).

§ Visibility from observer

Set your observer location to see the next 7 days of passes ≥ 10°. The values pass through the URL so the page stays shareable.

No JS? Fill the form by hand. The geolocation button needs JavaScript.